RYR4D EKCH-EPGD

Flight info

Callsign RYR4D
Flight time 0h 47m
Altitude 31000
Route SIMEG Z491 TELMO DCT ASBAX DCT RUMAR L983 DOMAG T240 OGDAV
Aircraft B738/M-SDE2E3FGHIRWXY/LB1

Departure

Time 2026-05-04 18:15
Airport Copenhagen Kastrup Airport (EKCH)

Arrival

Time 2026-05-04 19:02
Airport Gdańsk Lech Wałęsa Airport (EPGD)
Time Latitude Longitude Altitude Speed Heading
2026-05-04 17:25 55.62510 12.65684 16 ft 0 kts 359°
2026-05-04 17:59 55.62495 12.65685 17 ft 3 kts 352°
2026-05-04 18:00 55.62473 12.65694 16 ft 3 kts 336°
2026-05-04 18:00 55.62454 12.65714 18 ft 3 kts 311°
2026-05-04 18:00 55.62444 12.65746 18 ft 3 kts 274°
2026-05-04 18:00 55.62444 12.65755 19 ft 1 kts 269°
2026-05-04 18:04 55.62443 12.65746 18 ft 5 kts 267°
2026-05-04 18:04 55.62442 12.65546 16 ft 11 kts 269°
2026-05-04 18:05 55.62439 12.65428 16 ft 9 kts 271°
2026-05-04 18:05 55.62438 12.65312 16 ft 10 kts 269°
2026-05-04 18:05 55.62408 12.65212 16 ft 10 kts 196°
2026-05-04 18:05 55.62344 12.65216 19 ft 9 kts 153°
2026-05-04 18:06 55.62277 12.65062 16 ft 10 kts 297°
2026-05-04 18:06 55.62316 12.64957 16 ft 11 kts 303°
2026-05-04 18:06 55.62358 12.64843 17 ft 12 kts 303°
2026-05-04 18:07 55.62404 12.64718 16 ft 12 kts 303°
2026-05-04 18:07 55.62453 12.64592 16 ft 12 kts 298°
2026-05-04 18:07 55.62428 12.64467 16 ft 13 kts 199°
2026-05-04 18:07 55.62340 12.64429 16 ft 12 kts 195°
2026-05-04 18:08 55.62337 12.64428 16 ft 0 kts 195°
2026-05-04 18:10 55.62337 12.64427 16 ft 1 kts 195°
2026-05-04 18:11 55.62304 12.64411 17 ft 10 kts 196°
2026-05-04 18:11 55.62207 12.64353 16 ft 15 kts 205°
2026-05-04 18:11 55.62108 12.64269 18 ft 8 kts 199°
2026-05-04 18:11 55.62062 12.64239 16 ft 5 kts 202°
2026-05-04 18:12 55.62007 12.64187 16 ft 10 kts 205°
2026-05-04 18:12 55.61918 12.64110 16 ft 18 kts 210°
2026-05-04 18:12 55.61796 12.63964 16 ft 25 kts 220°
2026-05-04 18:12 55.61698 12.63820 17 ft 18 kts 206°
2026-05-04 18:13 55.61549 12.63816 17 ft 24 kts 176°
2026-05-04 18:13 55.61431 12.63765 17 ft 21 kts 213°
2026-05-04 18:13 55.61287 12.63550 20 ft 0 kts 220°
2026-05-04 18:14 55.61213 12.63437 20 ft 43 kts 221°
2026-05-04 18:14 55.60802 12.62801 17 ft 111 kts 220°
2026-05-04 18:14 55.60086 12.61719 104 ft 153 kts 224°
2026-05-04 18:15 55.58270 12.58941 1089 ft 187 kts 223°
2026-05-04 18:15 55.56180 12.55891 2019 ft 217 kts 211°
2026-05-04 18:15 55.54677 12.54949 2294 ft 233 kts 200°
2026-05-04 18:16 55.53181 12.54096 2714 ft 238 kts 201°
2026-05-04 18:16 55.51621 12.53163 3227 ft 240 kts 202°
2026-05-04 18:16 55.50059 12.52211 3728 ft 241 kts 202°
2026-05-04 18:17 55.46883 12.50254 4777 ft 242 kts 202°
2026-05-04 18:17 55.45271 12.49387 5286 ft 245 kts 192°
2026-05-04 18:17 55.41994 12.51338 6244 ft 257 kts 161°
2026-05-04 18:18 55.40360 12.52632 6687 ft 261 kts 157°
2026-05-04 18:18 55.38730 12.54089 7168 ft 263 kts 157°
2026-05-04 18:18 55.37092 12.55559 7644 ft 265 kts 157°
2026-05-04 18:18 55.35446 12.57045 8140 ft 268 kts 157°
2026-05-04 18:19 55.32097 12.60090 9139 ft 277 kts 155°
2026-05-04 18:19 55.30642 12.62487 9344 ft 303 kts 121°
2026-05-04 18:19 55.30075 12.66110 9943 ft 314 kts 95°
2026-05-04 18:20 55.29942 12.69892 10464 ft 327 kts 94°
2026-05-04 18:20 55.29796 12.74060 10812 ft 345 kts 94°
2026-05-04 18:20 55.29618 12.78309 11448 ft 353 kts 95°
2026-05-04 18:20 55.29403 12.82625 12200 ft 357 kts 96°
2026-05-04 18:21 55.29159 12.86989 12970 ft 362 kts 97°
2026-05-04 18:21 55.28895 12.91406 13724 ft 367 kts 97°
2026-05-04 18:21 55.28614 12.95892 14437 ft 372 kts 97°
2026-05-04 18:21 55.28324 13.00425 15213 ft 375 kts 98°
2026-05-04 18:22 55.28027 13.04989 15971 ft 379 kts 98°
2026-05-04 18:22 55.27724 13.09613 16719 ft 383 kts 98°
2026-05-04 18:22 55.27390 13.14268 17453 ft 387 kts 99°
2026-05-04 18:22 55.27029 13.18970 18190 ft 392 kts 99°
2026-05-04 18:23 55.26654 13.23731 18833 ft 396 kts 99°
2026-05-04 18:23 55.26275 13.28527 19491 ft 399 kts 99°
2026-05-04 18:23 55.25897 13.33294 20145 ft 402 kts 99°
2026-05-04 18:23 55.25510 13.38197 20713 ft 408 kts 99°
2026-05-04 18:24 55.25117 13.43154 21305 ft 413 kts 99°
2026-05-04 18:24 55.24722 13.48151 21947 ft 416 kts 99°
2026-05-04 18:24 55.24320 13.53201 22540 ft 420 kts 99°
2026-05-04 18:24 55.23913 13.58308 23143 ft 424 kts 99°
2026-05-04 18:25 55.23500 13.63448 23674 ft 428 kts 99°
2026-05-04 18:25 55.23082 13.68635 24159 ft 432 kts 100°
2026-05-04 18:25 55.22658 13.73869 24613 ft 437 kts 100°
2026-05-04 18:25 55.22226 13.79163 25067 ft 441 kts 100°
2026-05-04 18:26 55.21787 13.84516 25519 ft 445 kts 100°
2026-05-04 18:26 55.21342 13.89914 25943 ft 450 kts 101°
2026-05-04 18:26 55.20888 13.95376 26268 ft 457 kts 101°
2026-05-04 18:26 55.20426 14.00914 26680 ft 461 kts 101°
2026-05-04 18:27 55.19964 14.06423 27140 ft 464 kts 101°
2026-05-04 18:27 55.19486 14.12096 27580 ft 467 kts 101°
2026-05-04 18:27 55.19012 14.17688 27976 ft 471 kts 101°
2026-05-04 18:27 55.18527 14.23366 28371 ft 476 kts 101°
2026-05-04 18:28 55.18034 14.29120 28771 ft 479 kts 101°
2026-05-04 18:28 55.17537 14.34881 29282 ft 479 kts 101°
2026-05-04 18:28 55.17037 14.40649 29867 ft 478 kts 101°
2026-05-04 18:28 55.16536 14.46412 30223 ft 481 kts 102°
2026-05-04 18:29 55.16025 14.52221 30439 ft 487 kts 102°
2026-05-04 18:29 55.15507 14.58090 30905 ft 485 kts 102°
2026-05-04 18:29 55.14508 14.69319 30935 ft 485 kts 102°
2026-05-04 18:30 55.12951 14.86604 30948 ft 479 kts 102°
2026-05-04 18:31 55.11918 14.97889 30935 ft 480 kts 102°
2026-05-04 18:31 55.10852 15.09415 30939 ft 481 kts 102°
2026-05-04 18:32 55.09782 15.20860 30943 ft 481 kts 102°
2026-05-04 18:32 55.08684 15.32488 30933 ft 482 kts 102°
2026-05-04 18:33 55.07584 15.44025 30934 ft 482 kts 103°
2026-05-04 18:33 55.06481 15.55463 30930 ft 481 kts 102°
2026-05-04 18:34 55.05363 15.66939 30933 ft 479 kts 103°
2026-05-04 18:34 55.04228 15.78474 30934 ft 478 kts 103°
2026-05-04 18:35 55.03101 15.89812 30936 ft 477 kts 103°
2026-05-04 18:35 55.01957 16.01208 30940 ft 477 kts 103°
2026-05-04 18:36 55.01006 16.10615 30910 ft 461 kts 103°
2026-05-04 18:36 55.00283 16.17751 30922 ft 443 kts 103°
2026-05-04 18:36 54.99924 16.21295 30917 ft 435 kts 103°
2026-05-04 18:36 54.99408 16.26407 30922 ft 423 kts 103°
2026-05-04 18:37 54.98905 16.31323 30917 ft 411 kts 103°
2026-05-04 18:37 54.97906 16.40934 30695 ft 399 kts 104°
2026-05-04 18:37 54.97402 16.45713 30808 ft 407 kts 104°
2026-05-04 18:38 54.96875 16.50659 30441 ft 424 kts 104°
2026-05-04 18:38 54.96328 16.55789 29726 ft 435 kts 103°
2026-05-04 18:38 54.95774 16.60999 29080 ft 440 kts 103°
2026-05-04 18:38 54.95218 16.66229 28518 ft 441 kts 103°
2026-05-04 18:39 54.94661 16.71474 28130 ft 438 kts 103°
2026-05-04 18:39 54.94109 16.76646 27811 ft 434 kts 103°
2026-05-04 18:39 54.93558 16.81785 27475 ft 430 kts 103°
2026-05-04 18:39 54.93008 16.86886 27111 ft 427 kts 104°
2026-05-04 18:40 54.92461 16.91928 26752 ft 424 kts 104°
2026-05-04 18:40 54.91913 16.96955 26406 ft 421 kts 104°
2026-05-04 18:40 54.91366 17.01949 26076 ft 418 kts 104°
2026-05-04 18:40 54.90820 17.06882 25732 ft 415 kts 105°
2026-05-04 18:41 54.89990 17.11638 25345 ft 406 kts 119°
2026-05-04 18:41 54.88751 17.15943 24908 ft 396 kts 123°
2026-05-04 18:41 54.87468 17.20109 24378 ft 392 kts 124°
2026-05-04 18:41 54.86193 17.24203 23919 ft 387 kts 124°
2026-05-04 18:42 54.84918 17.28304 23438 ft 383 kts 124°
2026-05-04 18:42 54.83667 17.32352 22886 ft 379 kts 124°
2026-05-04 18:42 54.82434 17.36360 22342 ft 375 kts 123°
2026-05-04 18:42 54.81219 17.40320 21822 ft 371 kts 123°
2026-05-04 18:43 54.80016 17.44249 21293 ft 367 kts 123°
2026-05-04 18:43 54.78839 17.48091 20790 ft 363 kts 123°
2026-05-04 18:43 54.77660 17.51936 20274 ft 360 kts 123°
2026-05-04 18:43 54.76488 17.55753 19795 ft 357 kts 123°
2026-05-04 18:44 54.75328 17.59523 19295 ft 354 kts 123°
2026-05-04 18:44 54.74551 17.62049 18968 ft 352 kts 123°
2026-05-04 18:44 54.73020 17.67010 18237 ft 351 kts 123°
2026-05-04 18:44 54.71869 17.70735 17644 ft 350 kts 122°
2026-05-04 18:45 54.70718 17.74454 17028 ft 349 kts 122°
2026-05-04 18:45 54.69572 17.78151 16442 ft 348 kts 122°
2026-05-04 18:45 54.68433 17.81824 15862 ft 346 kts 122°
2026-05-04 18:45 54.67299 17.85471 15296 ft 344 kts 122°
2026-05-04 18:46 54.66164 17.89119 14787 ft 341 kts 122°
2026-05-04 18:46 54.65049 17.92701 14275 ft 338 kts 122°
2026-05-04 18:46 54.63940 17.96253 13778 ft 334 kts 122°
2026-05-04 18:46 54.62841 17.99770 13213 ft 331 kts 122°
2026-05-04 18:47 54.61762 18.03216 12669 ft 328 kts 122°
2026-05-04 18:47 54.60713 18.06562 12133 ft 325 kts 122°
2026-05-04 18:47 54.59667 18.09893 11618 ft 323 kts 122°
2026-05-04 18:47 54.58603 18.13277 11093 ft 320 kts 122°
2026-05-04 18:48 54.57557 18.16601 10580 ft 318 kts 122°
2026-05-04 18:48 54.56504 18.19939 10075 ft 316 kts 122°
2026-05-04 18:48 54.55460 18.23244 9545 ft 314 kts 121°
2026-05-04 18:48 54.54419 18.26536 9011 ft 310 kts 121°
2026-05-04 18:49 54.53402 18.29752 8504 ft 300 kts 121°
2026-05-04 18:49 54.52423 18.32845 7991 ft 290 kts 121°
2026-05-04 18:49 54.51470 18.35852 7453 ft 282 kts 121°
2026-05-04 18:49 54.50538 18.38782 6927 ft 276 kts 121°
2026-05-04 18:50 54.49627 18.41643 6416 ft 270 kts 121°
2026-05-04 18:50 54.48735 18.44442 6051 ft 263 kts 121°
2026-05-04 18:50 54.47849 18.47217 5977 ft 265 kts 121°
2026-05-04 18:50 54.46975 18.49951 5973 ft 253 kts 121°
2026-05-04 18:51 54.46150 18.52539 5746 ft 239 kts 122°
2026-05-04 18:51 54.45373 18.54974 5521 ft 228 kts 122°
2026-05-04 18:51 54.44623 18.57316 5252 ft 220 kts 122°
2026-05-04 18:51 54.43891 18.59597 5062 ft 217 kts 122°
2026-05-04 18:52 54.43158 18.61878 5031 ft 219 kts 122°
2026-05-04 18:52 54.42429 18.64174 5004 ft 218 kts 120°
2026-05-04 18:52 54.41811 18.66570 5006 ft 220 kts 115°
2026-05-04 18:52 54.41220 18.69004 5007 ft 220 kts 115°
2026-05-04 18:53 54.40627 18.71427 4958 ft 221 kts 116°
2026-05-04 18:53 54.40058 18.73732 4827 ft 220 kts 116°
2026-05-04 18:53 54.39468 18.76112 4651 ft 219 kts 116°
2026-05-04 18:53 54.38863 18.78542 4450 ft 218 kts 116°
2026-05-04 18:54 54.38320 18.80715 4240 ft 217 kts 116°
2026-05-04 18:54 54.37724 18.83097 4061 ft 216 kts 115°
2026-05-04 18:54 54.37136 18.85446 4017 ft 213 kts 116°
2026-05-04 18:54 54.36415 18.87605 3983 ft 208 kts 142°
2026-05-04 18:55 54.35201 18.88641 4022 ft 195 kts 180°
2026-05-04 18:55 54.32780 18.87657 4026 ft 176 kts 210°
2026-05-04 18:55 54.31660 18.86830 4011 ft 174 kts 210°
2026-05-04 18:56 54.30550 18.86012 4008 ft 176 kts 210°
2026-05-04 18:56 54.29519 18.85047 3979 ft 168 kts 230°
2026-05-04 18:56 54.29037 18.83531 4021 ft 159 kts 258°
2026-05-04 18:56 54.29053 18.81851 4014 ft 158 kts 284°
2026-05-04 18:57 54.29454 18.80079 4025 ft 160 kts 288°
2026-05-04 18:57 54.29883 18.78307 4024 ft 162 kts 289°
2026-05-04 18:57 54.30322 18.76522 4017 ft 163 kts 289°
2026-05-04 18:57 54.30791 18.74728 3763 ft 172 kts 292°
2026-05-04 18:58 54.31291 18.72890 3479 ft 166 kts 291°
2026-05-04 18:58 54.31707 18.71257 3269 ft 157 kts 290°
2026-05-04 18:58 54.32119 18.69592 3052 ft 147 kts 289°
2026-05-04 18:58 54.32500 18.68034 2848 ft 138 kts 288°
2026-05-04 18:59 54.32877 18.66490 2680 ft 141 kts 289°
2026-05-04 18:59 54.33256 18.64947 2493 ft 140 kts 289°
2026-05-04 18:59 54.33634 18.63403 2314 ft 141 kts 288°
2026-05-04 18:59 54.34013 18.61856 2125 ft 140 kts 289°
2026-05-04 19:00 54.34388 18.60329 1973 ft 136 kts 288°
2026-05-04 19:00 54.34759 18.58817 1751 ft 136 kts 288°
2026-05-04 19:00 54.35123 18.57334 1557 ft 135 kts 288°
2026-05-04 19:00 54.35487 18.55847 1371 ft 137 kts 289°
2026-05-04 19:01 54.35860 18.54336 1197 ft 138 kts 289°
2026-05-04 19:01 54.36221 18.52792 967 ft 139 kts 285°
2026-05-04 19:01 54.36576 18.51272 797 ft 136 kts 290°
2026-05-04 19:01 54.36963 18.49771 634 ft 138 kts 290°
2026-05-04 19:02 54.37345 18.48276 488 ft 134 kts 289°
2026-05-04 19:02 54.37671 18.46936 456 ft 104 kts 292°
2026-05-04 19:02 54.37850 18.46253 454 ft 31 kts 293°
2026-05-04 19:02 54.37919 18.46010 457 ft 9 kts 305°
2026-05-04 19:03 54.37960 18.45913 455 ft 11 kts 310°
2026-05-04 19:03 54.38015 18.45819 454 ft 11 kts 319°
2026-05-04 19:03 54.38072 18.45744 454 ft 10 kts 322°
2026-05-04 19:03 54.38128 18.45736 454 ft 8 kts 47°
2026-05-04 19:04 54.38135 18.45805 454 ft 5 kts 99°
2026-05-04 19:04 54.38123 18.45864 455 ft 5 kts 110°
2026-05-04 19:04 54.38110 18.45921 457 ft 5 kts 111°
2026-05-04 19:04 54.38097 18.45976 458 ft 5 kts 111°
2026-05-04 19:05 54.38083 18.46032 458 ft 6 kts 114°
2026-05-04 19:05 54.38062 18.46112 456 ft 9 kts 115°
2026-05-04 19:05 54.38034 18.46230 457 ft 13 kts 111°
2026-05-04 19:05 54.38006 18.46345 457 ft 12 kts 112°
2026-05-04 19:06 54.37973 18.46479 457 ft 15 kts 102°
2026-05-04 19:06 54.37970 18.46653 459 ft 15 kts 112°
2026-05-04 19:06 54.37974 18.46753 458 ft 5 kts 34°
2026-05-04 19:06 54.38014 18.46788 459 ft 8 kts 20°
2026-05-04 19:07 54.38021 18.46792 459 ft 0 kts 21°